Location: Huesca
(42.1318°N, 0.4078°W)
Time: 08:46:39
(UTC+02:00)

CUTE 1.7 + AOD 2 - Pass Details

Date: 01 May 2024
Orbit: 569 x 587 km, 97.8° (Epoch: 20 May)

Event Time Altitude Azimuth Distance (km) Brightness Sun altitude
Rises 04:22:36 0° 35° (NE) 2,779 ? -23.8°
Reaches altitude 10° 04:25:58 10° 65° (ENE) 1,874 ? -23.4°
Maximum altitude 04:27:42 12° 91° (E) 1,717 ? -23.2°
Drops below altitude 10° 04:29:26 10° 116° (ESE) 1,868 ? -23.0°
Enters shadow 04:31:15 - 136° (SE) 2,290 ? -22.8°
